Location: Emporia
(38.4040°N, 96.1810°W)
Time: 09:41:28
(UTC-05:00)

ISS - Visible Passes

Search period start: 21 April 2015 00:00
Search period end: 01 May 2015 00:00
Orbit: 395 x 403 km, 51.6° (Epoch: 21 April)

Date Brightness Start Highest point End Pass type
(mag) Time Alt. Az. Time Alt. Az. Time Alt. Az.
21 Apr -3.2 20:49:32 10° NW 20:52:46 62° NE 20:55:22 15° ESE visible
21 Apr -0.4 22:27:26 10° WSW 22:27:55 11° WSW 22:27:55 11° WSW visible
22 Apr -1.5 21:32:09 10° WNW 21:34:52 24° SW 21:36:15 18° S visible
23 Apr -2.7 20:37:40 10° WNW 20:40:51 53° SW 20:44:00 10° SE visible
24 Apr -0.4 21:21:52 10° WSW 21:22:39 11° SW 21:23:18 10° SW visible
